Time,TemperatureF,DewpointF,PressureIn,WindDirection,WindDirectionDegrees,WindSpeedMPH,WindSpeedGustMPH,Humidity,HourlyPrecipIn,Conditions,Clouds,dailyrainin,SoftwareType,DateUTC
2013-08-21 00:23:00,73.0,69.0,-100.00,South,180,2.0,-999.0,85,-99.99,,,-99.99,,2013-08-21 05:23:00,
2013-08-21 00:52:00,72.0,68.0,-100.00,South,180,3.0,-999.0,87,-99.99,,,-99.99,,2013-08-21 05:52:00,
2013-08-21 01:22:00,71.0,68.0,-100.00,South,180,2.0,-999.0,89,-99.99,,,-99.99,,2013-08-21 06:22:00,
2013-08-21 01:52:00,71.0,68.0,-100.00,South,180,3.0,-999.0,91,-99.99,,,-99.99,,2013-08-21 06:52:00,
2013-08-21 02:11:00,72.0,68.0,-100.00,South,180,3.0,-999.0,90,-99.99,,,-99.99,,2013-08-21 07:11:00,
2013-08-21 02:21:00,72.0,68.0,-100.00,South,180,3.0,-999.0,90,-99.99,,,-99.99,,2013-08-21 07:21:00,
2013-08-21 02:53:00,71.0,68.0,-100.00,South,180,2.0,-999.0,90,-99.99,,,-99.99,,2013-08-21 07:53:00,
2013-08-21 03:22:00,70.0,68.0,-100.00,SSW,203,2.0,-999.0,91,-99.99,,,-99.99,,2013-08-21 08:22:00,
2013-08-21 03:52:00,69.0,67.0,-100.00,South,180,2.0,-999.0,92,-99.99,,,-99.99,,2013-08-21 08:52:00,
2013-08-21 04:22:00,69.0,67.0,-100.00,South,180,2.0,-999.0,93,-99.99,,,-99.99,,2013-08-21 09:22:00,
2013-08-21 04:53:00,68.0,66.0,-100.00,South,180,2.0,-999.0,95,-99.99,,,-99.99,,2013-08-21 09:53:00,
2013-08-21 05:23:00,68.0,66.0,-100.00,South,180,2.0,-999.0,95,-99.99,,,-99.99,,2013-08-21 10:23:00,
2013-08-21 05:52:00,68.0,66.0,-100.00,South,180,2.0,-999.0,95,-99.99,,,-99.99,,2013-08-21 10:52:00,
2013-08-21 06:22:00,68.0,67.0,-100.00,SSW,203,3.0,-999.0,95,-99.99,,,-99.99,,2013-08-21 11:22:00,
2013-08-21 06:52:00,69.0,67.0,-100.00,SSW,203,3.0,-999.0,94,-99.99,,,-99.99,,2013-08-21 11:52:00,
2013-08-21 07:22:00,68.0,67.0,-100.00,South,180,2.0,-999.0,94,-99.99,,,-99.99,,2013-08-21 12:22:00,
2013-08-21 07:52:00,69.0,67.0,-100.00,South,180,2.0,-999.0,93,-99.99,,,-99.99,,2013-08-21 12:52:00,
2013-08-21 08:21:00,69.0,67.0,-100.00,South,180,2.0,-999.0,93,-99.99,,,-99.99,,2013-08-21 13:21:00,
2013-08-21 08:52:00,72.0,68.0,-100.00,South,180,2.0,-999.0,88,-99.99,,,-99.99,,2013-08-21 13:52:00,
2013-08-21 09:21:00,74.0,67.0,-100.00,SSW,203,3.0,-999.0,78,-99.99,,,-99.99,,2013-08-21 14:21:00,
2013-08-21 09:52:00,76.0,67.0,-100.00,SSW,203,4.0,-999.0,73,-99.99,,,-99.99,,2013-08-21 14:52:00,
2013-08-21 10:22:00,79.0,67.0,-100.00,South,180,4.0,-999.0,66,-99.99,,,-99.99,,2013-08-21 15:22:00,
2013-08-21 10:54:00,80.0,66.0,-100.00,SSW,203,5.0,-999.0,61,-99.99,,,-99.99,,2013-08-21 15:54:00,
2013-08-21 11:24:00,82.0,67.0,-100.00,SSW,203,3.0,-999.0,60,-99.99,,,-99.99,,2013-08-21 16:24:00,
2013-08-21 11:53:00,84.0,68.0,-100.00,South,180,3.0,-999.0,58,-99.99,,,-99.99,,2013-08-21 16:53:00,
2013-08-21 12:23:00,85.0,69.0,-100.00,South,180,4.0,-999.0,58,-99.99,,,-99.99,,2013-08-21 17:23:00,
2013-08-21 12:53:00,88.0,72.0,-100.00,South,180,3.0,-999.0,59,-99.99,,,-99.99,,2013-08-21 17:53:00,
2013-08-21 13:22:00,89.0,70.0,-100.00,South,180,4.0,-999.0,54,-99.99,,,-99.99,,2013-08-21 18:22:00,
2013-08-21 13:52:00,90.0,71.0,-100.00,South,180,3.0,-999.0,53,-99.99,,,-99.99,,2013-08-21 18:52:00,
2013-08-21 14:22:00,92.0,72.0,-100.00,South,180,4.0,-999.0,53,-99.99,,,-99.99,,2013-08-21 19:22:00,
2013-08-21 14:52:00,93.0,71.0,-100.00,South,180,4.0,-999.0,49,-99.99,,,-99.99,,2013-08-21 19:52:00,
2013-08-21 15:22:00,94.0,72.0,-100.00,South,180,3.0,-999.0,50,-99.99,,,-99.99,,2013-08-21 20:22:00,
2013-08-21 15:52:00,94.0,71.0,-100.00,SSW,203,3.0,-999.0,48,-99.99,,,-99.99,,2013-08-21 20:52:00,
2013-08-21 16:21:00,94.0,71.0,-100.00,South,180,4.0,-999.0,47,-99.99,,,-99.99,,2013-08-21 21:21:00,
2013-08-21 16:54:00,94.0,71.0,-100.00,SSW,203,4.0,-999.0,47,-99.99,,,-99.99,,2013-08-21 21:54:00,
2013-08-21 17:24:00,94.0,73.0,-100.00,South,180,4.0,-999.0,50,-99.99,,,-99.99,,2013-08-21 22:24:00,
2013-08-21 17:53:00,93.0,72.0,-100.00,South,180,3.0,-999.0,49,-99.99,,,-99.99,,2013-08-21 22:53:00,
2013-08-21 18:22:00,92.0,71.0,-100.00,South,180,3.0,-999.0,50,-99.99,,,-99.99,,2013-08-21 23:22:00,
2013-08-21 18:53:00,91.0,72.0,-100.00,South,180,3.0,-999.0,53,-99.99,,,-99.99,,2013-08-21 23:53:00,
2013-08-21 19:21:00,89.0,72.0,-100.00,South,180,2.0,-999.0,56,-99.99,,,-99.99,,2013-08-22 00:21:00,
2013-08-21 19:52:00,85.0,72.0,-100.00,South,180,3.0,-999.0,63,-99.99,,,-99.99,,2013-08-22 00:52:00,
2013-08-21 20:22:00,82.0,71.0,-100.00,South,180,2.0,-999.0,67,-99.99,,,-99.99,,2013-08-22 01:22:00,
2013-08-21 20:52:00,79.0,71.0,-100.00,South,180,2.0,-999.0,76,-99.99,,,-99.99,,2013-08-22 01:52:00,
2013-08-21 21:22:00,76.0,71.0,-100.00,SSE,158,2.0,-999.0,84,-99.99,,,-99.99,,2013-08-22 02:22:00,
2013-08-21 22:22:00,74.0,70.0,-100.00,South,180,2.0,-999.0,89,-99.99,,,-99.99,,2013-08-22 03:22:00,
2013-08-21 22:54:00,73.0,70.0,-100.00,South,180,2.0,-999.0,88,-99.99,,,-99.99,,2013-08-22 03:54:00,
2013-08-21 23:23:00,73.0,69.0,-100.00,South,180,3.0,-999.0,86,-99.99,,,-99.99,,2013-08-22 04:23:00,
2013-08-21 23:54:00,74.0,69.0,-100.00,South,180,3.0,-999.0,85,-99.99,,,-99.99,,2013-08-22 04:54:00,